San Jose, Costa Rica

5:08 PM CST on December 12, 2017 (GMT -0600)
Juan Santamaria International

Weather History for MROC - August, 2012

Change the Weather History Date:

Wednesday, August 22, 2012

  Actual Average Record
Temperature  
Mean Temperature 72 °F -  
Max Temperature 82 °F 79 °F 86 °F (1997)
Min Temperature 63 °F 63 °F 62 °F (1999)
Cooling Degree Days 8    
Growing Degree Days 22 (Base 50)    
Moisture  
Dew Point 65 °F    
Average Humidity 82    
Maximum Humidity 94    
Minimum Humidity 52    
Precipitation  
Precipitation 0.00 in 0.44 in - ()
Sea Level Pressure  
Sea Level Pressure 30.00 in    
Wind  
Wind Speed 4 mph ()    
Max Wind Speed 13 mph    
Max Gust Speed -    
Visibility 6.5 miles    
Events Fog , Rain , Thunderstorm    
Averages and records for this station are not official NWS values.
T = Trace of Precipitation, MM = Missing Value Source: Averaged Metar Reports

Daily Weather History Graph

Daily Weather History Graph

Search for Another Location

Airport or City:

Trip Planner

Search our weather history database for the weather conditions in past years. The results will help you decide how hot, cold, wet, or windy it might be!

Date:

Astronomy

Aug. 22, 2012 Rise Set
Actual Time 5:27 AM CST 5:51 PM CST
Civil Twilight 5:06 AM CST 6:12 PM CST
Nautical Twilight 4:41 AM CST 6:37 PM CST
Astronomical Twilight 4:16 AM CST 7:02 PM CST
Moon 9:50 AM CST (8/22) 9:52 PM CST (8/22)
Length of Visible Light 13h 06m
Length of Day
12h 23m
Waxing Crescent, 30% of the Moon is Illuminated
Aug 22
Waxing Crescent
Aug 24
First Quarter
Aug 31
Full
Sep 8
Last Quarter
Sep 15
New

Hourly Weather History & Observations

Time (CST) Temp. Heat Index Dew Point Humidity Pressure Visibility Wind Dir Wind Speed Gust Speed Precip Events Conditions
12:00 AM 67 °F - 65 °F 91% 29.90 in 12 mi NW 3.5 mph - -  
12:00 AM 68.0 °F - 64.4 °F 88% 30.04 in - NW 3.5 mph - N/A   Clear
1:00 AM 68.0 °F - 64.4 °F 88% 30.02 in 5.0 mi NNW 2.3 mph - N/A Fog Scattered Clouds
2:00 AM 68.0 °F - 64.4 °F 88% 30.02 in 5.0 mi Calm Calm - N/A Fog Scattered Clouds
3:00 AM 67 °F - 65 °F 90% 29.89 in 9 mi ENE 2.3 mph - - Fog Light Fog
3:00 AM 66.2 °F - 64.4 °F 94% 30.03 in 6.2 mi ENE 2.3 mph - N/A Fog Scattered Clouds
4:00 AM 66.2 °F - 62.6 °F 88% 30.02 in 6.2 mi NNE 3.5 mph - N/A   Scattered Clouds
5:00 AM 64.4 °F - 62.6 °F 94% 30.02 in 6.2 mi East 4.6 mph - N/A Fog Scattered Clouds
6:00 AM 64.4 °F - 60.8 °F 88% 30.04 in 6.2 mi ENE 4.6 mph - N/A   Scattered Clouds
7:00 AM 69.8 °F - 62.6 °F 78% 30.05 in 6.2 mi ENE 8.1 mph - N/A Fog Scattered Clouds
8:00 AM 73.4 °F - 62.6 °F 69% 30.06 in - NE 4.6 mph - N/A   Clear
9:00 AM 78 °F - 64 °F 52% 29.89 in 9 mi East 5.8 mph - -   Scattered Clouds
9:00 AM 78.8 °F - 64.4 °F 61% 30.07 in 6.2 mi East 5.8 mph - N/A   Scattered Clouds
10:00 AM 82.4 °F 83.9 °F 64.4 °F 54% 30.05 in 6.2 mi SE 5.8 mph - N/A   Scattered Clouds
10:22 AM 78.8 °F - 64.4 °F 61% 30.05 in 6.2 mi WSW 9.2 mph - N/A   Scattered Clouds
11:00 AM 78.8 °F - 64.4 °F 61% 30.04 in 6.2 mi West 6.9 mph - N/A   Scattered Clouds
12:00 PM 79 °F - 67 °F 57% 29.86 in 9 mi SW 9.2 mph - -   Partly Cloudy
12:00 PM 78.8 °F - 66.2 °F 65% 30.02 in 6.2 mi SW 9.2 mph - N/A   Scattered Clouds
1:00 PM 77.0 °F - 69.8 °F 78% 30.01 in 6.2 mi WSW 9.2 mph - N/A   Mostly Cloudy
1:15 PM 75.2 °F - 69.8 °F 83% 30.00 in 5.0 mi West 12.7 mph - N/A Rain , Thunderstorm Light Rain Showers
1:17 PM 71.6 °F - 68.0 °F 88% 30.03 in 0.3 mi West 12.7 mph - N/A Rain , Thunderstorm Heavy Thunderstorms and Rain
1:23 PM 68.0 °F - 60.8 °F 78% 30.02 in 0.5 mi WSW 9.2 mph - N/A Rain , Thunderstorm Heavy Thunderstorms and Rain
1:39 PM 66.2 °F - 62.6 °F 88% 30.00 in 1.9 mi SSW 8.1 mph - N/A Rain , Thunderstorm Light Thunderstorms and Rain
2:00 PM 66.2 °F - 64.4 °F 94% 29.99 in 6.2 mi West 6.9 mph - N/A Rain , Thunderstorm Light Thunderstorms and Rain
3:00 PM 68 °F - 65 °F 86% 29.87 in 12 mi WSW 2.3 mph - -   Overcast
3:00 PM 68.0 °F - 64.4 °F 88% 29.98 in 6.2 mi WNW 2.3 mph - N/A   Overcast
4:00 PM 69.8 °F - 68.0 °F 94% 29.99 in 6.2 mi WNW 3.5 mph - N/A   Mostly Cloudy
5:00 PM 69.8 °F - 66.2 °F 88% 30.00 in 6.2 mi WSW 5.8 mph - N/A Rain Light Rain
6:00 PM 69 °F - 65 °F 84% 29.90 in 12 mi West 2.3 mph - -   Overcast
6:00 PM 68.0 °F - 66.2 °F 94% 30.00 in 6.2 mi West 2.3 mph - N/A   Mostly Cloudy
7:00 PM 68.0 °F - 64.4 °F 88% 30.04 in 6.2 mi SE 2.3 mph - N/A   Mostly Cloudy
8:00 PM 69.8 °F - 66.2 °F 88% 30.05 in 6.2 mi WNW 2.3 mph - N/A   Scattered Clouds
9:00 PM 68 °F - 66 °F 90% 29.88 in 9 mi WNW 2.3 mph - -   Overcast
9:00 PM 68.0 °F - 66.2 °F 94% 30.06 in 6.2 mi WNW 2.3 mph - N/A   Mostly Cloudy
10:00 PM 66.2 °F - 64.4 °F 94% - 6.2 mi SE 2.3 mph - N/A   Mostly Cloudy
11:00 PM 66.2 °F - 64.4 °F 94% 30.04 in - NE 6.9 mph - N/A   Clear